User: anonymous   Login
Location: Brno
(49.2000°N, 16.6330°E)
Time: 20:15:32
(UTC+01:00)
Language:

CARTOSAT-1 - Orbit

View from above orbital plane
View from above orbital plane
View from above satellite
View from above satellite

Ground track
Ground track

The orbit data is extracted from the following two-line orbital elements,

1 28649U 05017A   17017.46858709 -.00000071  00000-0 -22504-5 0  9993
2 28649  97.8776  94.1221 0002490 137.2974 222.8410 14.83448741633636
Epoch (UTC): 17 January 2017 11:14:45
Eccentricity: 0.0002490
inclination: 97.8776°
perigee height: 617 km
apogee height: 620 km
right ascension of ascending node: 94.1221°
argument of perigee: 137.2974°
revolutions per day: 14.83448741
mean anomaly at epoch: 222.8410°
orbit number at epoch: 63363

The dashed part of the orbit path shows where the satellite is in the earth's shadow,  

DLR